Location: Unspecified
(0.0000°N, 0.0000°E)
Time: 02:23:34
(UTC+00:00)

GALILEO 8 (264) - Visible Passes

Search period start: 10 December 2022 00:00
Search period end: 20 December 2022 00:00
Orbit: 23206 x 23237 km, 56.9° (Epoch: 07 December)

Date Brightness Start Highest point End Pass type
(mag) Time Alt. Az. Time Alt. Az. Time Alt. Az.
10 Dec ? 16:46:00 10° SSW 20:18:27 80° W 04:24:14 10° ESE daylight
12 Dec ? 03:31:25 10° NNW 07:31:46 87° E 11:15:48 10° SSE visible
13 Dec ? 09:59:59 10° NW 18:44:50 73° E 22:06:41 10° NNE visible
14 Dec ? 20:35:41 10° SW 22:43:12 29° W 09:00:46 10° SSE visible
16 Dec ? 07:24:47 10° NNW 17:11:45 47° E 19:55:06 10° NNE visible
17 Dec ? 18:17:51 10° SSW 21:11:20 54° W 06:46:31 10° SE daylight
19 Dec ? 05:12:34 10° NNW 08:24:55 67° W 17:30:44 10° NE visible
